Weather History for Kamloops, BC

Change the Weather History Date:

Tuesday, March 26, 2013

  Actual Average Record
Temperature  
Mean Temperature 44 °F -  
Max Temperature 60 °F 51 °F 60 °F (2012)
Min Temperature 27 °F 31 °F 27 °F (2013)
Degree Days  
Heating Degree Days 22    
Moisture  
Dew Point 24 °F    
Average Humidity 47    
Maximum Humidity 75    
Minimum Humidity 15    
Precipitation  
Precipitation 0.00 in - - ()
Sea Level Pressure  
Sea Level Pressure 30.03 in    
Wind  
Wind Speed 4 mph ()    
Max Wind Speed 8 mph    
Max Gust Speed -    
Averages and records for this station are not official NWS values.
T = Trace of Precipitation, MM = Missing Value Source: Averaged Metar Reports

Daily Weather History Graph

Daily Weather History Graph

Search for Another Location

Airport:

Trip Planner

Search our weather history database for the weather conditions in past years. The results will help you decide how hot, cold, wet, or windy it might be!

Date:

Astronomy

Mar. 26, 2013 Rise Set
Actual Time 6:50 AM PDT 7:25 PM PDT
Civil Twilight 6:17 AM PDT 7:58 PM PDT
Nautical Twilight 5:38 AM PDT 8:37 PM PDT
Astronomical Twilight 4:56 AM PDT 9:19 PM PDT
Moon 7:10 PM PDT (3/26) 6:11 AM PDT (3/26)
Length of Visible Light 13h 40m
Length of Day
12h 34m
Full, 100% of the Moon is Illuminated
Mar 26
Full
Mar 27
Full
Apr 2
Last Quarter
Apr 10
New
Apr 18
First Quarter

Hourly Weather History & Observations

Time (PDT) Temp. Windchill Dew Point Humidity Pressure Visibility Wind Dir Wind Speed Gust Speed Precip Events Conditions
12:00 AM 37.4 °F 31.4 °F 21.2 °F 52% 30.06 in 40.0 mi East 8.1 mph - N/A   Clear
1:00 AM 35.6 °F 30.7 °F 21.2 °F 56% 30.06 in 40.0 mi ENE 5.8 mph - N/A   Partly Cloudy
3:00 AM 32.0 °F - 21.2 °F 64% 30.07 in 40.0 mi SSW 2.3 mph - N/A   Clear
4:00 AM 32.0 °F - 19.4 °F 60% 30.07 in 40.0 mi East 2.3 mph - N/A   Partly Cloudy
5:00 AM 30 °F - 20 °F 56% 30.08 in 37 mi ENE 5.8 mph - -   Clear
5:00 AM 30.2 °F 25.4 °F 21.2 °F 69% 30.08 in 40.0 mi ENE 4.6 mph - N/A   Partly Cloudy
6:00 AM 30.2 °F - 21.2 °F 69% 30.09 in 40.0 mi NE 2.3 mph - N/A   Partly Cloudy
7:00 AM 30.2 °F - 23.0 °F 75% 30.10 in 40.0 mi East 2.3 mph - N/A   Partly Cloudy
8:00 AM 30.2 °F - 21.2 °F 69% 30.11 in 40.0 mi ENE 2.3 mph - N/A   Scattered Clouds
9:00 AM 35.6 °F 29.9 °F 23.0 °F 60% 30.11 in 40.0 mi East 6.9 mph - N/A   Scattered Clouds
10:00 AM 39.2 °F 34.2 °F 23.0 °F 52% 30.10 in 40.0 mi East 6.9 mph - N/A   Scattered Clouds
11:00 AM 42 °F - 23 °F 33% 30.09 in 37 mi East 8.1 mph - -   Clear
11:00 AM 42.8 °F 38.0 °F 23.0 °F 46% 30.09 in 40.0 mi East 8.1 mph - N/A   Scattered Clouds
12:00 PM 46.4 °F 44.3 °F 23.0 °F 40% 30.07 in 40.0 mi East 4.6 mph - N/A   Partly Cloudy
1:00 PM 50.0 °F - 23.0 °F 35% 30.04 in 40.0 mi SSE 4.6 mph - N/A   Scattered Clouds
2:00 PM 53.6 °F - 23.0 °F 30% 30.01 in 40.0 mi SE 5.8 mph - N/A   Scattered Clouds
3:00 PM 57.2 °F - 23.0 °F 27% 29.98 in 40.0 mi SSE 5.8 mph - N/A   Scattered Clouds
4:00 PM 59.0 °F - 24.8 °F 27% 29.96 in 40.0 mi SE 4.6 mph - N/A   Scattered Clouds
5:00 PM 59 °F - 24 °F 15% 29.94 in 37 mi SE 2.3 mph - -   Overcast
5:00 PM 59.0 °F - 24.8 °F 27% 29.94 in 40.0 mi SE 2.3 mph - N/A   Mostly Cloudy
6:00 PM 57.2 °F - 28.4 °F 33% 29.94 in 40.0 mi West 3.5 mph - N/A   Mostly Cloudy
7:00 PM 50.0 °F - 30.2 °F 47% 29.94 in 40.0 mi West 3.5 mph - N/A   Mostly Cloudy
8:00 PM 51.8 °F - 26.6 °F 38% 29.95 in 40.0 mi North 4.6 mph - N/A   Mostly Cloudy
9:00 PM 44.6 °F 41.4 °F 26.6 °F 49% 29.97 in 40.0 mi West 5.8 mph - N/A   Mostly Cloudy
10:00 PM 44.6 °F 40.2 °F 28.4 °F 53% 29.98 in 40.0 mi SSE 8.1 mph - N/A   Mostly Cloudy
11:00 PM 45 °F - 29 °F 41% 29.99 in 37 mi SW 3.5 mph - -   Mostly Cloudy
11:00 PM 44.6 °F - 28.4 °F 53% 29.99 in 40.0 mi SW 2.3 mph - N/A   Mostly Cloudy